Millinocket, ME

7:09 AM EDT on September 25, 2017 (GMT -0400)
Millinocket Municipal

Weather History for KMLT - March, 2013

Change the Weather History Date:

Sunday, March 31, 2013

  Actual Average Record
Temperature  
Mean Temperature 38 °F 33 °F  
Max Temperature 53 °F 43 °F 71 °F (1998)
Min Temperature 23 °F 24 °F -5 °F (1954)
Degree Days  
Heating Degree Days 27 32  
Month to date heating degree days 1007 1146  
Since 1 July heating degree days 6558 7199  
Cooling Degree Days 0 0  
Month to date cooling degree days 0 0  
Year to date cooling degree days 0 0  
Moisture  
Dew Point 16 °F    
Average Humidity 54    
Maximum Humidity 88    
Minimum Humidity 19    
Precipitation  
Precipitation 0.00 in 0.13 in 1.91 in (1932)
Month to date precipitation 1.50 3.06  
Year to date precipitation 4.93 8.17  
Snow  
Snow 0.00 in - - ()
Month to date snowfall 0.0  
Snow Depth 0.00 in    
Sea Level Pressure  
Sea Level Pressure 30.04 in    
Wind  
Wind Speed 3 mph (SSE)    
Max Wind Speed 12 mph    
Max Gust Speed 20 mph    
Visibility 10 miles    
Events      
T = Trace of Precipitation, MM = Missing Value Source: NWS Daily Summary

Daily Weather History Graph

Daily Weather History Graph

Search for Another Location

Airport or City:

Trip Planner

Search our weather history database for the weather conditions in past years. The results will help you decide how hot, cold, wet, or windy it might be!

Date:

Astronomy

Mar. 31, 2013 Rise Set
Actual Time 6:16 AM EDT 7:02 PM EDT
Civil Twilight 5:46 AM EDT 7:32 PM EDT
Nautical Twilight 5:10 AM EDT 8:07 PM EDT
Astronomical Twilight 4:33 AM EDT 8:45 PM EDT
Moon No Moon Rise 8:48 AM EDT (3/31)
Length of Visible Light 13h 45m
Length of Day
12h 45m
Waning Gibbous, 78% of the Moon is Illuminated
Mar 31
Waning Gibbous
Apr 3
Last Quarter
Apr 10
New
Apr 18
First Quarter
Apr 25
Full

Hourly Weather History & Observations

Time (EDT) Temp. Windchill Dew Point Humidity Pressure Visibility Wind Dir Wind Speed Gust Speed Precip Events Conditions
12:53 AM 30.9 °F 27.5 °F 17.1 °F 57% 30.09 in 10.0 mi West 3.5 mph - N/A   Clear
1:53 AM 27.0 °F - 19.0 °F 72% 30.10 in 10.0 mi Calm Calm - N/A   Clear
2:53 AM 27.0 °F - 19.9 °F 75% 30.10 in 10.0 mi Calm Calm - N/A   Clear
3:53 AM 25.0 °F - 19.0 °F 78% 30.09 in 10.0 mi Calm Calm - N/A   Clear
4:53 AM 25.0 °F - 19.0 °F 78% 30.10 in 10.0 mi Calm Calm - N/A   Clear
5:53 AM 23.0 °F - 19.0 °F 85% 30.11 in 10.0 mi Calm Calm - N/A   Clear
6:53 AM 24.1 °F - 19.0 °F 81% 30.12 in 10.0 mi Calm Calm - N/A   Clear
7:53 AM 28.0 °F - 21.0 °F 75% 30.12 in 10.0 mi Calm Calm - N/A   Clear
8:53 AM 35.1 °F - 19.9 °F 54% 30.12 in 10.0 mi Calm Calm - N/A   Clear
9:53 AM 42.1 °F 39.2 °F 17.1 °F 37% 30.10 in 10.0 mi ESE 4.6 mph - N/A   Clear
10:53 AM 46.0 °F 44.8 °F 12.9 °F 26% 30.09 in 10.0 mi Variable 3.5 mph - N/A   Clear
11:53 AM 48.0 °F - 10.9 °F 22% 30.08 in 10.0 mi Variable 5.8 mph - N/A   Clear
12:53 PM 50.0 °F - 12.9 °F 23% 30.05 in 10.0 mi Variable 6.9 mph - N/A   Clear
1:53 PM 51.1 °F - 10.0 °F 19% 30.04 in 10.0 mi Variable 6.9 mph - N/A   Clear
2:53 PM 52.0 °F - 10.0 °F 19% 30.01 in 10.0 mi Variable 6.9 mph - N/A   Clear
3:53 PM 52.0 °F - 12.0 °F 20% 29.99 in 10.0 mi Variable 3.5 mph - N/A   Clear
4:53 PM 52.0 °F - 12.9 °F 21% 29.97 in 10.0 mi South 4.6 mph - N/A   Clear
5:53 PM 50.0 °F - 16.0 °F 26% 29.97 in 10.0 mi SSE 5.8 mph - N/A   Clear
6:53 PM 46.9 °F - 18.0 °F 32% 29.97 in 10.0 mi Variable 5.8 mph - N/A   Clear
7:53 PM 45.0 °F 40.1 °F 15.1 °F 30% 29.97 in 10.0 mi SSE 9.2 mph - N/A   Clear
8:53 PM 43.0 °F 41.3 °F 15.1 °F 32% 29.96 in 10.0 mi SSE 3.5 mph - N/A   Clear
9:53 PM 41.0 °F 38.0 °F 16.0 °F 36% 29.95 in 10.0 mi SSE 4.6 mph - N/A   Clear
10:53 PM 39.0 °F 35.7 °F 19.0 °F 45% 29.93 in 10.0 mi Variable 4.6 mph - N/A   Scattered Clouds
11:53 PM 36.0 °F - 21.9 °F 57% 29.90 in 10.0 mi Calm Calm - N/A   Clear